PulseSat

PulseSat

COSMOS 2459 (731)

Last updated on Jan. 17, 2019, 2:58 a.m. UTC

1 36400U 10007A   19016.73526861 -.00000004  00000-0  10000-3 0  9995
2 36400  65.6939  45.2417 0026445 345.8291 162.4447  2.13102139 69105
UTC
Height (km)
Latitude
Longitude
Inclination
Orbital Period

Next 30 passes for location: Hong Kong

Rise time Rise Azimuth (degrees) Set time Set Azimuth (degrees) Duration Max altitude (degrees)

No matching passes for this satellites

PulseSat

PulseSat is the new satellites software and hardware trackering solution by Pulsely.
Satellite Two Line Element Set source: US Air Force Space Command

Download PulseSat for iOS
© 2017 Pulsely Limited